OK1FRN-6 Weather Reports


time (UTC)temp
C
wind
direction
speed
KPH
gust
KPH
rain 1hr
cm
rain 24hr
cm
rain mn
cm
humidity
%
barometer
mb
20260507075929 18 193 6.4 12.9 0.00 0.00 0.00 56 1012.1
20260507075423 18 263 6.4 12.9 0.00 0.00 0.00 55 1012.1
20260507074410 18 226 4.8 8.0 0.00 0.00 0.00 59 1012.1
20260507073357 17 191 4.8 11.3 0.00 0.00 0.00 58 1012.1
20260507072344 17 203 6.4 9.7 0.00 0.00 0.00 60 1011.9
20260507071331 16 257 4.8 8.0 0.00 0.00 0.00 63 1011.9
20260507070825 16 222 4.8 9.7 0.00 0.00 0.00 61 1011.8
20260507070319 17 195 4.8 12.9 0.00 0.00 0.00 60 1011.8
20260507065812 17 206 6.4 11.3 0.00 0.00 0.00 61 1011.7
20260507065306 17 188 4.8 9.7 0.00 0.00 0.00 62 1011.7
20260507064759 17 208 3.2 6.4 0.00 0.00 0.00 66 1011.6
20260507063746 16 234 3.2 4.8 0.00 0.00 0.00 70 1011.6
20260507063240 16 227 3.2 6.4 0.00 0.00 0.00 74 1011.6
20260507062734 15 240 3.2 4.8 0.00 0.00 0.00 75 1011.6
20260507062227 15 169 4.8 8.0 0.00 0.00 0.00 75 1011.5
20260507061215 14 255 3.2 8.0 0.00 0.00 0.00 80 1011.5
20260507060709 13 219 3.2 4.8 0.00 0.00 0.00 82 1011.3
20260507060203 13 168 3.2 4.8 0.00 0.00 0.00 84 1011.3
20260507055657 13 233 3.2 4.8 0.00 0.00 0.00 85 1011.2
20260507055151 13 217 3.2 6.4 0.00 0.00 0.00 86 1011.1
20260507054138 13 133 1.6 3.2 0.00 0.00 0.00 89 1011.0
20260507052620 12 106 0.0 0.0 0.00 0.00 0.00 93 1010.9
20260507051609 11 315 0.0 0.0 0.00 0.00 0.00 94 1010.8
20260507050558 10 334 0.0 0.0 0.00 0.00 0.00 93 1010.7
20260507050051 9 60 0.0 0.0 0.00 0.00 0.00 93 1010.7
20260507045546 8 54 0.0 0.0 0.00 0.00 0.00 91 1010.6
20260507045040 8 355 0.0 0.0 0.00 0.00 0.00 90 1010.6
20260507044534 8 315 0.0 0.0 0.00 0.00 0.00 89 1010.5
20260507044028 8 18 0.0 0.0 0.00 0.00 0.00 89 1010.4
20260507043523 8 29 0.0 0.0 0.00 0.00 0.00 88 1010.3
20260507043017 8 350 0.0 0.0 0.00 0.00 0.00 88 1010.2
20260507042006 8 0 0.0 0.0 0.00 0.00 0.00 88 1010.1
20260507041500 8 359 0.0 0.0 0.00 0.00 0.00 88 1010.1
20260507040954 8 63 0.0 0.0 0.00 0.00 0.00 88 1010.1
20260507040449 8 333 0.0 0.0 0.00 0.00 0.00 88 1010.2
20260507035943 8 315 0.0 0.0 0.00 0.00 0.00 87 1010.1
20260507035437 8 315 0.0 0.0 0.00 0.00 0.00 87 1010.1
20260507034932 8 315 0.0 0.0 0.00 0.00 0.00 86 1010.1
20260507034426 8 315 0.0 0.0 0.00 0.00 0.00 86 1010.1
20260507033415 8 350 0.0 0.0 0.00 0.00 0.00 86 1009.9
20260507032909 8 0 0.0 0.0 0.00 0.00 0.00 86 1009.8
20260507025835 8 315 0.0 0.0 0.00 0.00 0.00 86 1009.7
20260507025329 8 315 0.0 0.0 0.00 0.00 0.00 86 1009.6
20260507024823 8 315 0.0 0.0 0.00 0.00 0.00 86 1009.7
20260507024318 8 315 0.0 0.0 0.00 0.00 0.00 85 1009.7
20260507023812 8 315 0.0 0.0 0.00 0.00 0.00 85 1009.6
20260507022801 9 312 0.0 0.0 0.00 0.00 0.00 85 1009.7
20260507022255 9 306 0.0 0.0 0.00 0.00 0.00 85 1009.7
20260507014714 10 280 0.0 0.0 0.00 0.00 0.00 85 1009.3
20260507014209 10 274 0.0 0.0 0.00 0.00 0.00 85 1009.3
20260507012651 10 315 0.0 0.0 0.00 0.00 0.00 85 1009.3
20260507011640 10 262 0.0 0.0 0.00 0.00 0.00 85 1009.2
20260507011134 10 286 0.0 0.0 0.00 0.00 0.00 85 1009.2
20260507010628 10 315 0.0 0.0 0.00 0.00 0.00 85 1009.1
20260507010122 11 315 0.0 0.0 0.00 0.00 0.00 85 1009.0
20260507005616 11 315 0.0 0.0 0.00 0.00 0.00 85 1009.0
20260507005111 11 315 0.0 0.0 0.00 0.00 0.00 85 1009.0
20260507004059 11 315 0.0 0.0 0.00 0.00 0.00 85 1008.7
20260507003553 11 274 0.0 0.0 0.00 0.00 0.00 85 1008.6
20260507003047 11 308 0.0 0.0 0.00 0.00 0.00 85 1008.7
20260507001529 11 306 0.0 0.0 0.00 0.00 0.00 86 1008.6
20260507000517 11 267 0.0 0.0 0.00 0.00 0.00 86 1008.7
20260507000011 11 260 0.0 0.0 0.00 0.00 0.00 85 1008.6
20260506235000 12 319 0.0 0.0 0.00 0.00 0.00 85 1008.4
20260506234454 12 0 0.0 0.0 0.00 0.00 0.00 85 1008.4
20260506233948 12 293 0.0 0.0 0.00 0.00 0.00 85 1008.4
20260506233442 12 226 0.0 0.0 0.00 0.00 0.00 85 1008.3
20260506232936 12 278 0.0 0.0 0.00 0.00 0.00 85 1008.3
20260506232430 12 315 0.0 0.0 0.00 0.00 0.00 85 1008.1
20260506231924 12 233 0.0 0.0 0.00 0.00 0.00 86 1008.1
20260506231418 12 225 0.0 0.0 0.00 0.00 0.00 86 1008.1
20260506230406 12 327 0.0 0.0 0.00 0.00 0.00 86 1008.3
20260506224848 12 241 0.0 0.0 0.00 0.00 0.00 86 1008.1
20260506224342 12 222 0.0 0.0 0.00 0.00 0.00 87 1008.0
20260506223836 12 0 0.0 0.0 0.00 0.00 0.00 88 1007.9
20260506223330 12 9 0.0 0.0 0.00 0.00 0.00 88 1007.8
20260506222824 12 87 0.0 0.0 0.00 0.00 0.00 89 1007.9
20260506222318 13 59 0.0 0.0 0.00 0.00 0.00 86 1008.2
20260506221306 13 226 0.0 0.0 0.00 0.00 0.00 86 1008.3
20260506220800 13 220 0.0 0.0 0.00 0.00 0.00 86 1008.3
20260506215242 13 297 0.0 0.0 0.00 0.00 0.00 84 1008.0
20260506214230 13 251 1.6 1.6 0.00 0.00 0.00 83 1007.9
20260506212712 13 270 1.6 3.2 0.00 0.00 0.00 83 1007.7
20260506212205 13 270 0.0 0.0 0.00 0.00 0.00 83 1007.6
20260506211659 13 270 0.0 0.0 0.00 0.00 0.00 83 1007.5
20260506211153 13 297 0.0 0.0 0.00 0.00 0.00 83 1007.5
20260506210647 13 0 0.0 0.0 0.00 0.00 0.00 83 1007.5
20260506210141 13 0 0.0 0.0 0.00 0.00 0.00 83 1007.5
20260506204623 13 294 0.0 1.6 0.00 0.00 0.00 83 1007.6
20260506203611 13 359 0.0 1.6 0.00 0.00 0.00 84 1007.4
20260506203105 13 23 0.0 3.2 0.00 0.00 0.00 84 1007.5
20260506201546 14 155 1.6 3.2 0.00 0.00 0.00 83 1008.0
20260506201040 14 336 1.6 3.2 0.00 0.00 0.00 81 1008.0
20260506200534 14 293 1.6 3.2 0.00 0.00 0.00 81 1008.1
20260506200028 15 281 3.2 8.0 0.00 0.00 0.00 80 1008.0
20260506195015 15 263 4.8 11.3 0.00 0.00 0.00 79 1008.0
20260506194509 15 236 3.2 6.4 0.00 0.00 0.00 78 1007.9
20260506194003 15 248 1.6 3.2 0.00 0.00 0.00 76 1007.4
20260506193457 15 259 1.6 3.2 0.00 0.00 0.00 76 1006.9
20260506191938 15 317 0.0 0.0 0.00 0.00 0.00 74 1006.2
20260506190926 15 10 0.0 0.0 0.00 0.00 0.00 73 1006.0
20260506190420 15 319 0.0 0.0 0.00 0.00 0.00 71 1006.0
20260506185913 16 314 0.0 0.0 0.00 0.00 0.00 71 1006.1
20260506185407 16 0 0.0 0.0 0.00 0.00 0.00 71 1006.1
20260506184901 16 0 0.0 0.0 0.00 0.00 0.00 70 1005.9
20260506184354 16 0 0.0 0.0 0.00 0.00 0.00 70 1005.8
20260506183848 16 359 0.0 0.0 0.00 0.00 0.00 69 1005.7
20260506182835 16 315 0.0 0.0 0.00 0.00 0.00 69 1005.5
20260506181823 16 315 0.0 0.0 0.00 0.00 0.00 69 1005.5
20260506181316 17 315 0.0 0.0 0.00 0.00 0.00 69 1005.4
20260506175251 17 347 0.0 1.6 0.00 0.00 0.00 69 1005.3
20260506174238 17 357 0.0 0.0 0.00 0.00 0.00 69 1005.2
20260506173732 17 35 0.0 1.6 0.00 0.00 0.00 69 1005.2
20260506173225 17 32 0.0 1.6 0.00 0.00 0.00 69 1005.2
20260506172719 17 0 0.0 0.0 0.00 0.00 0.00 68 1005.0
20260506172212 17 331 0.0 0.0 0.00 0.00 0.00 68 1005.1
20260506171706 18 322 0.0 0.0 0.00 0.00 0.00 68 1005.1
20260506171159 18 0 0.0 0.0 0.00 0.00 0.00 69 1005.0
20260506170653 18 357 0.0 1.6 0.00 0.00 0.00 69 1005.0
20260506165640 18 42 0.0 0.0 0.00 0.00 0.00 69 1004.9
20260506165134 18 1 0.0 0.0 0.00 0.00 0.00 69 1004.9
20260506164627 18 0 0.0 0.0 0.00 0.00 0.00 69 1004.9
20260506164120 18 33 0.0 0.0 0.00 0.00 0.00 69 1005.0
20260506162054 18 28 0.0 3.2 0.00 0.00 0.00 70 1005.2
20260506160535 18 3 0.0 1.6 0.00 0.00 0.00 70 1005.4
20260506160029 18 357 0.0 1.6 0.00 0.00 0.00 71 1005.4
20260506155522 18 33 1.6 3.2 0.00 0.00 0.00 72 1005.5
20260506155016 18 69 1.6 4.8 0.00 0.00 0.00 72 1005.6
20260506154509 18 51 1.6 1.6 0.00 0.00 0.00 72 1005.6
20260506154003 18 45 0.0 1.6 0.00 0.00 0.00 71 1005.6
20260506153456 18 10 0.0 1.6 0.00 0.00 0.00 70 1005.8
20260506152950 18 18 1.6 3.2 0.00 0.00 0.00 70 1005.7
20260506152443 18 9 1.6 3.2 0.00 0.00 0.00 71 1005.6
20260506151937 18 3 1.6 3.2 0.00 0.00 0.00 72 1005.5
20260506151430 18 40 1.6 3.2 0.00 0.00 0.00 73 1005.6
20260506150417 18 89 0.0 1.6 0.00 0.00 0.00 72 1005.7
20260506145911 18 34 1.6 3.2 0.00 0.00 0.00 70 1005.9
20260506145404 18 296 1.6 3.2 0.00 0.00 0.00 66 1006.0
20260506144858 18 261 3.2 4.8 0.00 0.00 0.00 65 1006.5
20260506144351 18 255 3.2 4.8 0.00 0.00 0.00 63 1006.4
20260506143338 19 273 1.6 4.8 0.00 0.00 0.00 61 1006.2
20260506142832 20 277 3.2 4.8 0.00 0.00 0.00 60 1006.1
20260506141818 20 276 1.6 3.2 0.00 0.00 0.00 57 1006.1
20260506135751 21 315 0.0 0.0 0.00 0.00 0.00 49 1006.1
20260506135244 21 315 0.0 0.0 0.00 0.00 0.00 48 1006.1
20260506134231 22 77 0.0 3.2 0.00 0.00 0.00 45 1006.2
20260506133724 22 43 0.0 1.6 0.00 0.00 0.00 44 1006.1
20260506133217 22 102 1.6 3.2 0.00 0.00 0.00 42 1006.2
20260506132710 22 299 0.0 1.6 0.00 0.00 0.00 43 1006.2
20260506132203 22 27 0.0 1.6 0.00 0.00 0.00 42 1006.3
20260506131656 22 97 1.6 3.2 0.00 0.00 0.00 42 1006.3
20260506131150 22 84 1.6 3.2 0.00 0.00 0.00 41 1006.4
20260506130643 22 43 1.6 3.2 0.00 0.00 0.00 41 1006.4
20260506130136 23 33 1.6 3.2 0.00 0.00 0.00 41 1006.5
20260506124108 23 106 1.6 4.8 0.00 0.00 0.00 41 1006.6
20260506123601 23 71 1.6 4.8 0.00 0.00 0.00 40 1006.7
20260506123054 23 9 1.6 3.2 0.00 0.00 0.00 42 1006.8
20260506122547 23 263 1.6 3.2 0.00 0.00 0.00 42 1006.9
20260506122040 23 106 1.6 4.8 0.00 0.00 0.00 41 1007.0
20260506121026 24 2 1.6 3.2 0.00 0.00 0.00 42 1007.0
20260506120519 23 44 1.6 3.2 0.00 0.00 0.00 42 1007.2
20260506120012 23 44 1.6 3.2 0.00 0.00 0.00 42 1007.3
20260506115505 23 206 1.6 4.8 0.00 0.00 0.00 41 1007.4
20260506114957 23 141 3.2 6.4 0.00 0.00 0.00 41 1007.4
20260506114450 23 215 3.2 6.4 0.00 0.00 0.00 43 1007.3
20260506113943 23 117 4.8 8.0 0.00 0.00 0.00 41 1007.4
20260506113436 23 151 3.2 4.8 0.00 0.00 0.00 40 1007.5
20260506112929 23 218 3.2 4.8 0.00 0.00 0.00 41 1007.6
20260506112423 23 224 4.8 9.7 0.00 0.00 0.00 41 1007.5
20260506111915 23 92 3.2 4.8 0.00 0.00 0.00 42 1007.6
20260506105847 23 194 4.8 11.3 0.00 0.00 0.00 42 1007.8
20260506105340 23 240 4.8 9.7 0.00 0.00 0.00 44 1007.8
20260506104833 23 356 1.6 6.4 0.00 0.00 0.00 45 1007.7
20260506104326 22 258 3.2 6.4 0.00 0.00 0.00 45 1007.8
20260506102805 23 316 3.2 6.4 0.00 0.00 0.00 44 1007.9
20260506102258 22 240 3.2 6.4 0.00 0.00 0.00 47 1007.9
20260506100738 21 283 3.2 4.8 0.00 0.00 0.00 50 1008.0
20260506095724 21 278 3.2 6.4 0.00 0.00 0.00 50 1008.0
20260506095217 21 215 3.2 11.3 0.00 0.00 0.00 50 1008.1
20260506094711 21 259 3.2 6.4 0.00 0.00 0.00 52 1008.1
20260506094204 21 238 3.2 4.8 0.00 0.00 0.00 51 1008.1
20260506093657 20 147 3.2 9.7 0.00 0.00 0.00 52 1008.1
20260506093150 20 245 1.6 3.2 0.00 0.00 0.00 53 1008.1
20260506092137 21 236 4.8 8.0 0.00 0.00 0.00 52 1008.2
20260506091630 21 41 3.2 6.4 0.00 0.00 0.00 53 1008.2
20260506091124 20 253 3.2 6.4 0.00 0.00 0.00 55 1008.2
20260506090617 20 131 3.2 4.8 0.00 0.00 0.00 54 1008.3
20260506090110 20 264 1.6 6.4 0.00 0.00 0.00 57 1008.3
20260506085604 20 282 3.2 4.8 0.00 0.00 0.00 57 1008.2
20260506085057 20 220 3.2 8.0 0.00 0.00 0.00 56 1008.3
20260506084550 20 257 3.2 8.0 0.00 0.00 0.00 58 1008.3
20260506084044 19 261 3.2 8.0 0.00 0.00 0.00 60 1008.3
20260506083537 18 216 3.2 4.8 0.00 0.00 0.00 62 1008.3
20260506082524 18 247 1.6 4.8 0.00 0.00 0.00 61 1008.3
20260506082018 18 203 3.2 6.4 0.00 0.00 0.00 62 1008.2
20260506081511 18 140 3.2 6.4 0.00 0.00 0.00 65 1008.2
20260506081005 18 121 3.2 4.8 0.00 0.00 0.00 65 1008.2
20260506080458 17 247 3.2 8.0 0.00 0.00 0.00 67 1008.2